World > North America > United States > Missouri > St. Louis   City of St. Louis, Missouri

Hourly St. Louis, MO Regional Weather

Feedback E-mail the Weather

Quick WX

St. Louis, MO Weather Maps

°F °C°F °C
Saint Louis Weather Map
UTC Time: 8/9/2022, 11:38
Your Time:

St. Louis, MO Regional Weather

Expires:202208091200;;729813
ASUS43 KEAX 091115
RWREAX

WEATHER ROUNDUP FOR EASTERN KANSAS AND NORTHWEST MISSOURI
NATIONAL WEATHER SERVICE KANSAS CITY/PLEASANT HILL MO
600 AM CDT TUE AUG 09 2022


MOZ041-047>049-056>058-063>065-088>090-097-091200-
...EASTERN AND SOUTHERN MISSOURI...
  
CITY           SKY/WX    TMP DP  RH WIND       PRES   REMARKS
ST. LOUIS INTL MOCLDY    73  70  90 N3        30.00F                  
SPIRIT OF STL  CLOUDY    72  71  97 CALM      30.00S                  
COLUMBIA       MOCLDY    71  68  90 N9        30.05R                  
JEFFERSON CITY MOCLDY    73  67  81 CALM      30.04R                  
MEXICO         CLOUDY    64  64 100 N5        30.06R                  
HANNIBAL       PTCLDY   N/A N/A N/A CALM      30.06R                  
ROLLA            N/A    N/A N/A N/A MISG      30.05R                  
LEBANON        CLOUDY    70  68  94 SW3       30.09R                  
OSAGE BEACH    MOCLDY   N/A N/A N/A CALM        N/A                   
SPRINGFIELD    MOCLDY    71  70  96 E6        30.05R                  
BRANSON        PTCLDY    68  68 100 CALM      30.08R                  
JOPLIN         CLOUDY    72  69  90 SW8       30.04R                  
WEST PLAINS    PTCLDY    69  67  93 CALM      30.10R                  
SIKESTON       CLEAR     73  72  94 SW6       30.03R                  

$$


SKY/WX - Weather  TMP - Temperature  DP - Dew Point  RH - Humidity
WIND - Wind Direction/Speed PRES - Barometric Pressure VSB - Visibility
WCI - Wind Chill Index E13G22 Wind - East Wind 13 mph/Gusts of 22 mph

Trending Headlines

St. Louis Radar Loop



St. Louis Quick Facts


National Two Day Weather Forecast


E-mail the St. Louis Weather Forecast

Voice your opinion or tell us about page issues...